Overview Statistics Trail Chart Weather Telemetry Raw packets
 

This is the latest recevied weather packets stored in our database for station/object 4S6DRJ-13. If no packets are shown the sender has not sent any weather packets the latest 10 day(s).

<< 389 390 391 392 393 394 395 >>
Time Temp. Humidity Pressure Rain* Wind** Luminosity Snow
1787875370 27.78° C 86% 1009.2 hPa 0 mm 0.45 m/s, 194° 0 W/m² -
1787875309 27.78° C 86% 1009.2 hPa 0 mm 0 m/s 0 W/m² -
1787875247 27.78° C 86% 1009.1 hPa 0 mm 0.89 m/s, 266° 0 W/m² -
1787875187 27.78° C 86% 1009.2 hPa 0 mm 0.45 m/s, 233° 0 W/m² -
1787875126 27.78° C 86% 1009.1 hPa 0 mm 0.89 m/s, 218° 0 W/m² -
1787875065 27.78° C 86% 1009.1 hPa 0 mm 0.89 m/s, 254° 0 W/m² -
1787875004 27.78° C 86% 1009 hPa 0 mm 0.89 m/s, 214° 0 W/m² -
1787874943 27.78° C 86% 1009.1 hPa 0 mm 1.34 m/s, 233° 0 W/m² -
1787874881 27.78° C 86% 1009.1 hPa 0 mm 0.45 m/s, 216° 0 W/m² -
1787874821 27.78° C 86% 1009 hPa 0 mm 0.89 m/s, 250° 0 W/m² -
1787874760 27.78° C 86% 1009 hPa 0 mm 0.45 m/s, 225° 0 W/m² -
1787874698 27.78° C 86% 1008.9 hPa 0 mm 0.89 m/s, 123° 0 W/m² -
1787874637 27.78° C 86% 1009.1 hPa 0 mm 1.34 m/s, 107° 0 W/m² -
1787874577 27.78° C 86% 1009 hPa 0 mm 0.89 m/s, 280° 0 W/m² -
1787874515 27.78° C 86% 1009.1 hPa 0 mm 2.24 m/s, 214° 0 W/m² -
1787874454 27.78° C 86% 1008.8 hPa 0 mm 0.89 m/s, 243° 0 W/m² -
1787874393 27.78° C 86% 1008.9 hPa 0 mm 0 m/s 0 W/m² -
1787874332 27.78° C 86% 1008.9 hPa 0 mm 0.45 m/s, 249° 0 W/m² -
1787874271 27.78° C 86% 1009 hPa 0 mm 0.89 m/s, 203° 0 W/m² -
1787874210 27.78° C 86% 1008.9 hPa 0 mm 0 m/s 0 W/m² -
1787874149 27.78° C 86% 1008.8 hPa 0 mm 0.89 m/s, 229° 0 W/m² -
1787874088 27.78° C 86% 1009 hPa 0 mm 0.89 m/s, 187° 0 W/m² -
1787874027 27.78° C 86% 1008.7 hPa 0 mm 0.45 m/s, 217° 0 W/m² -
1787873966 27.78° C 86% 1008.8 hPa 0 mm 0 m/s 0 W/m² -
1787873906 27.78° C 86% 1008.9 hPa 0 mm 0.89 m/s, 301° 0 W/m² -

* Rain latest hour (hover to see other rain measurements)
** Current wind speed in m/s (hover to see current wind gust speed)